New Philadelphia, OH

10:49 AM EST on December 16, 2017 (GMT -0500)
Clever

Weather History for KPHD - October, 2011

Change the Weather History Date:

Monday, October 17, 2011

  Actual Average Record
Temperature  
Mean Temperature 54 °F 52 °F  
Max Temperature 64 °F 64 °F 82 °F (1968)
Min Temperature 45 °F 40 °F 27 °F (1982)
Degree Days  
Heating Degree Days 10 13  
Month to date heating degree days 180  
Since 1 July heating degree days 286  
Cooling Degree Days 0 0  
Month to date cooling degree days 9  
Year to date cooling degree days 697  
Growing Degree Days 4 (Base 50)    
Moisture  
Dew Point 31 °F    
Average Humidity 43    
Maximum Humidity 68    
Minimum Humidity 21    
Precipitation  
Precipitation 0.00 in 0.09 in 1.88 in (2006)
Month to date precipitation 1.50  
Year to date precipitation 31.71  
Sea Level Pressure  
Sea Level Pressure 29.86 in    
Wind  
Wind Speed 7 mph (West)    
Max Wind Speed 14 mph    
Max Gust Speed 28 mph    
Visibility 10 miles    
Events Rain    
T = Trace of Precipitation, MM = Missing Value Source: NWS Daily Summary

Daily Weather History Graph

Daily Weather History Graph

Search for Another Location

Airport or City:

Trip Planner

Search our weather history database for the weather conditions in past years. The results will help you decide how hot, cold, wet, or windy it might be!

Date:

Astronomy

Oct. 17, 2011 Rise Set
Actual Time 7:38 AM EDT 6:43 PM EDT
Civil Twilight 7:10 AM EDT 7:10 PM EDT
Nautical Twilight 6:39 AM EDT 7:42 PM EDT
Astronomical Twilight 6:07 AM EDT 8:13 PM EDT
Moon 10:21 PM EDT (10/17) 12:44 PM EDT (10/17)
Length of Visible Light 11h 59m
Length of Day
11h 04m
Waning Gibbous, 74% of the Moon is Illuminated
Oct 17
Waning Gibbous
Oct 19
Last Quarter
Oct 26
New
Nov 2
First Quarter
Nov 10
Full

Hourly Weather History & Observations

Time (EDT) Temp. Windchill Dew Point Humidity Pressure Visibility Wind Dir Wind Speed Gust Speed Precip Events Conditions
12:53 AM 54.0 °F - 37.0 °F 53% 29.84 in 10.0 mi NW 9.2 mph - N/A   Overcast
2:53 AM 52.0 °F - 37.9 °F 59% 29.85 in 10.0 mi West 4.6 mph - N/A   Overcast
3:53 AM 50.0 °F - 37.0 °F 61% 29.85 in 10.0 mi West 4.6 mph - N/A   Clear
4:53 AM 48.9 °F - 37.0 °F 64% 29.86 in 10.0 mi West 4.6 mph - N/A   Clear
6:53 AM 46.9 °F - 36.0 °F 66% 29.87 in 10.0 mi WSW 3.5 mph - N/A   Clear
7:53 AM 45.0 °F 43.5 °F 35.1 °F 68% 29.89 in 10.0 mi Variable 3.5 mph - N/A   Clear
8:53 AM 48.0 °F - 34.0 °F 58% 29.91 in 10.0 mi Variable 5.8 mph - N/A   Clear
9:53 AM 51.1 °F - 34.0 °F 52% 29.91 in 10.0 mi West 8.1 mph - N/A   Clear
10:53 AM 55.0 °F - 32.0 °F 42% 29.90 in 10.0 mi Variable 5.8 mph - N/A   Clear
11:53 AM 57.0 °F - 28.9 °F 34% 29.89 in 10.0 mi WSW 12.7 mph 19.6 mph N/A   Clear
12:53 PM 59.0 °F - 26.1 °F 28% 29.87 in 10.0 mi WSW 10.4 mph 27.6 mph N/A   Clear
1:53 PM 62.1 °F - 25.0 °F 24% 29.84 in 10.0 mi West 13.8 mph 19.6 mph N/A   Clear
3:53 PM 64.9 °F - 24.1 °F 21% 29.81 in 10.0 mi West 12.7 mph 23.0 mph N/A   Clear
4:53 PM 63.0 °F - 23.0 °F 22% 29.81 in 10.0 mi WSW 6.9 mph - N/A   Clear
5:53 PM 61.0 °F - 25.0 °F 25% 29.82 in 10.0 mi WSW 5.8 mph - N/A   Clear
6:53 PM 60.1 °F - 26.1 °F 27% 29.82 in 10.0 mi West 6.9 mph - N/A   Clear
8:53 PM 57.9 °F - 28.0 °F 32% 29.84 in 10.0 mi WSW 5.8 mph - 0.00 in Rain Light Rain
9:53 PM 57.9 °F - 28.9 °F 33% 29.85 in 10.0 mi Variable 4.6 mph - 0.00 in   Overcast
10:53 PM 57.0 °F - 30.0 °F 36% 29.86 in 10.0 mi Variable 4.6 mph - N/A   Overcast
11:53 PM 55.0 °F - 34.0 °F 45% 29.87 in 10.0 mi Calm Calm - 0.00 in   Overcast